TimePST,TemperatureF,Dew PointF,Humidity,Sea Level PressureIn,VisibilityMPH,Wind Direction,Wind SpeedMPH,Gust SpeedMPH,PrecipitationIn,Events,Conditions,WindDirDegrees,DateUTC
12:54 AM,23.0,9.0,55,30.12,10.0,North,18.4,-,N/A,,Overcast,360,2014-02-06 08:54:00
1:54 AM,23.0,9.0,55,30.09,10.0,North,12.7,-,N/A,,Overcast,10,2014-02-06 09:54:00
2:54 AM,23.0,9.0,55,30.07,10.0,NNE,17.3,-,N/A,,Overcast,20,2014-02-06 10:54:00
3:54 AM,24.1,9.0,53,30.04,10.0,North,18.4,-,N/A,,Overcast,10,2014-02-06 11:54:00
4:54 AM,24.1,10.0,55,30.03,9.0,North,13.8,-,0.00,,Overcast,10,2014-02-06 12:54:00
5:54 AM,23.0,10.0,58,30.01,9.0,North,15.0,-,0.00,Snow,Light Snow,360,2014-02-06 13:54:00
6:54 AM,21.9,14.0,72,30.00,8.0,NNE,16.1,-,0.00,Snow,Light Snow,20,2014-02-06 14:54:00
7:08 AM,21.0,15.1,78,29.98,3.0,North,16.1,-,0.00,Snow,Light Snow,10,2014-02-06 15:08:00
7:35 AM,21.0,16.0,81,29.97,2.0,North,15.0,-,0.00,Snow,Light Snow,10,2014-02-06 15:35:00
7:54 AM,21.0,16.0,81,29.98,2.0,North,16.1,-,0.00,Snow,Light Snow,360,2014-02-06 15:54:00
8:36 AM,19.9,17.1,89,29.96,1.5,North,15.0,-,0.01,Snow,Light Snow,10,2014-02-06 16:36:00
8:49 AM,19.4,15.8,86,29.95,1.0,North,13.8,-,0.02,Snow,Light Snow,10,2014-02-06 16:49:00
8:54 AM,21.0,17.1,85,29.96,1.0,North,15.0,-,0.02,Snow,Light Snow,10,2014-02-06 16:54:00
9:24 AM,21.0,17.1,85,29.95,2.0,North,13.8,-,0.01,Snow,Light Snow,360,2014-02-06 17:24:00
9:44 AM,21.0,17.1,85,29.94,2.0,North,11.5,-,0.02,Snow,Light Snow,10,2014-02-06 17:44:00
9:54 AM,21.0,17.1,85,29.95,1.5,North,13.8,-,0.03,Snow,Light Snow,10,2014-02-06 17:54:00
10:01 AM,21.0,17.1,85,29.94,1.0,North,16.1,-,0.01,Snow,Light Snow,10,2014-02-06 18:01:00
10:54 AM,21.0,17.1,85,29.93,1.0,North,18.4,-,0.05,Snow,Light Snow,10,2014-02-06 18:54:00
11:12 AM,21.0,17.1,85,29.90,1.0,North,16.1,-,0.01,Snow,Light Snow,10,2014-02-06 19:12:00
11:17 AM,21.0,17.1,85,29.90,2.0,NNE,13.8,-,0.01,Snow,Light Snow,20,2014-02-06 19:17:00
11:42 AM,21.0,17.1,85,29.89,1.0,North,12.7,-,0.02,Snow,Light Snow,360,2014-02-06 19:42:00
11:44 AM,21.0,17.1,85,29.88,0.8,North,11.5,-,0.02,Snow,Light Snow,10,2014-02-06 19:44:00
11:54 AM,21.9,18.0,85,29.89,1.5,North,12.7,-,0.03,Snow,Light Snow,360,2014-02-06 19:54:00
12:03 PM,21.0,17.1,85,29.87,0.5,North,11.5,-,0.01,Snow,Snow,360,2014-02-06 20:03:00
12:21 PM,21.0,17.1,85,29.85,0.5,North,10.4,-,0.02,Snow,Snow,360,2014-02-06 20:21:00
12:54 PM,21.9,18.0,85,29.85,1.0,North,11.5,-,0.05,Snow,Light Snow,360,2014-02-06 20:54:00
1:40 PM,23.0,18.0,81,29.80,1.0,North,10.4,-,0.01,Snow,Light Snow,10,2014-02-06 21:40:00
1:54 PM,23.0,19.0,85,29.80,2.5,North,9.2,-,0.01,,Overcast,10,2014-02-06 21:54:00
2:11 PM,24.1,19.0,81,29.77,9.0,North,10.4,-,N/A,,Overcast,360,2014-02-06 22:11:00
2:54 PM,23.0,19.9,88,29.78,3.0,North,10.4,-,0.01,Snow,Light Snow,350,2014-02-06 22:54:00
3:09 PM,23.0,19.0,85,29.76,1.5,NNW,10.4,-,0.00,Snow,Light Snow,340,2014-02-06 23:09:00
3:41 PM,23.0,19.9,88,29.74,1.5,North,6.9,-,0.02,Snow,Light Snow,360,2014-02-06 23:41:00
3:54 PM,23.0,19.9,88,29.75,1.5,North,6.9,-,0.02,Snow,Light Snow,360,2014-02-06 23:54:00
4:30 PM,23.0,21.0,92,29.74,2.0,NW,4.6,-,0.02,Snow,Light Snow,320,2014-02-07 00:30:00
4:44 PM,24.1,21.0,88,29.73,2.0,North,4.6,-,0.02,Snow,Light Snow,350,2014-02-07 00:44:00
4:54 PM,23.0,19.9,88,29.75,2.0,North,4.6,-,0.02,Snow,Light Snow,360,2014-02-07 00:54:00
5:25 PM,23.0,21.0,92,29.75,2.0,North,4.6,-,0.00,,Light Freezing Drizzle,360,2014-02-07 01:25:00
5:39 PM,23.0,21.0,92,29.74,1.5,NNE,4.6,-,0.00,Snow,Light Snow,20,2014-02-07 01:39:00
5:54 PM,23.0,19.9,88,29.77,1.5,North,5.8,-,0.01,Snow,Light Snow,360,2014-02-07 01:54:00
6:28 PM,23.0,19.9,88,29.75,4.0,Calm,Calm,-,0.01,,Overcast,0,2014-02-07 02:28:00
6:54 PM,23.0,19.9,88,29.77,8.0,Calm,Calm,-,0.01,,Overcast,0,2014-02-07 02:54:00
7:00 PM,23.0,21.0,92,29.75,9.0,Calm,Calm,-,0.00,Rain,Light Freezing Rain,0,2014-02-07 03:00:00
7:54 PM,24.1,21.0,88,29.75,9.0,Calm,Calm,-,0.03,Rain,Light Freezing Rain,0,2014-02-07 03:54:00
8:08 PM,24.1,21.0,88,29.71,9.0,Calm,Calm,-,N/A,,Overcast,0,2014-02-07 04:08:00
8:23 PM,24.1,21.0,88,29.72,10.0,Calm,Calm,-,0.00,,Overcast,0,2014-02-07 04:23:00
8:54 PM,23.0,19.9,88,29.74,10.0,North,5.8,-,0.00,,Mostly Cloudy,350,2014-02-07 04:54:00
9:54 PM,23.0,19.9,88,29.75,6.0,SE,3.5,-,0.03,Rain,Light Freezing Rain,130,2014-02-07 05:54:00
10:54 PM,24.1,21.9,91,29.79,6.0,North,8.1,-,0.02,Rain,Light Freezing Rain,350,2014-02-07 06:54:00
11:11 PM,23.0,19.9,88,29.78,9.0,North,8.1,-,0.00,,Overcast,10,2014-02-07 07:11:00
11:37 PM,21.9,19.9,92,29.80,8.0,NNE,9.2,-,0.00,,Overcast,20,2014-02-07 07:37:00
11:54 PM,21.9,19.0,89,29.82,10.0,NNE,8.1,-,0.00,,Overcast,30,2014-02-07 07:54:00